Torna al catalogo

BEIDOU 3M15

AttivoNavigazioneMEO
NORAD 43647·PAYLOAD·🇨🇳 China

Lanciato Oct 15, 2018 da Xichang Satellite Launch Center

Loading…

Prossimi Passaggi (prossime 24 ore)

TLE

AggiornatoSource: CelesTrak SupGP

Epoca: Sep 12, 2026, 00:00 UTC

1 43647C 18078A   26255.00000000  .00000000  00000+0  00000+0 0  2551
2 43647  54.0085 296.9343 0006118  30.9231 325.6845  1.86232593    11

Traccia BEIDOU 3M15 in tempo reale con AllMySat

Download on the App Store